This is the latest recevied weather packets stored in our database for station/object N0FDH. If no packets are shown the sender has not sent any weather packets the latest 10 day(s).
| Time | Temp. | Humidity | Pressure | Rain* | Wind** | Luminosity | Snow |
|---|---|---|---|---|---|---|---|
| 1777739840 | 12.78° C | 34% | 1016.3 hPa | 0 mm | - | 617 W/m² | - |
| 1777739537 | 12.78° C | 37% | 1016.4 hPa | 0 mm | - | 619 W/m² | - |
| 1777739234 | 12.78° C | 34% | 1016.5 hPa | 0 mm | - | 609 W/m² | - |
| 1777738930 | 12.78° C | 35% | 1016.5 hPa | 0 mm | - | 568 W/m² | - |
| 1777738628 | 12.22° C | 35% | 1016.7 hPa | 0 mm | - | 561 W/m² | - |
| 1777738324 | 12.22° C | 35% | 1016.7 hPa | 0 mm | - | 547 W/m² | - |
| 1777738022 | 12.22° C | 36% | 1016.6 hPa | 0 mm | - | 556 W/m² | - |
| 1777737721 | 12.22° C | 37% | 1016.8 hPa | 0 mm | - | 552 W/m² | - |
| 1777737419 | 12.22° C | 35% | 1016.9 hPa | 0 mm | - | 547 W/m² | - |
| 1777737117 | 11.67° C | 39% | 1016.9 hPa | 0 mm | - | 541 W/m² | - |
| 1777736812 | 12.22° C | 38% | 1016.8 hPa | 0 mm | - | 543 W/m² | - |
| 1777736189 | 11.67° C | 37% | 1016.9 hPa | 0 mm | - | 522 W/m² | - |
| 1777735886 | 12.22° C | 35% | 1016.9 hPa | 0 mm | - | 512 W/m² | - |
| 1777735583 | 11.67° C | 37% | 1016.8 hPa | 0 mm | - | 495 W/m² | - |
| 1777735281 | 11.67° C | 37% | 1017 hPa | 0 mm | - | 482 W/m² | - |
| 1777734978 | 11.67° C | 36% | 1017.1 hPa | 0 mm | - | 458 W/m² | - |
| 1777734675 | 11.67° C | 37% | 1017.1 hPa | 0 mm | - | 403 W/m² | - |
| 1777734373 | 11.67° C | 35% | 1017 hPa | 0 mm | - | 429 W/m² | - |
| 1777734069 | 11.11° C | 39% | 1017 hPa | 0 mm | - | 359 W/m² | - |
| 1777733765 | 11.11° C | 35% | 1017.3 hPa | 0 mm | - | 259 W/m² | - |
| 1777733462 | 11.11° C | 35% | 1017.2 hPa | 0 mm | - | 282 W/m² | - |
| 1777733158 | 11.11° C | 39% | 1017.1 hPa | 0 mm | - | 333 W/m² | - |
| 1777732855 | 11.11° C | 39% | 1017.3 hPa | 0 mm | - | 323 W/m² | - |
| 1777732551 | 10.56° C | 38% | 1017.3 hPa | 0 mm | - | 352 W/m² | - |
| 1777732250 | 11.11° C | 39% | 1017.4 hPa | 0 mm | - | 289 W/m² | - |
* Rain latest hour (hover to see other rain measurements)
** Current wind speed in m/s (hover to see current wind gust speed)